This is the latest recevied weather packets stored in our database for station/object PY3MO-11. If no packets are shown the sender has not sent any weather packets the latest 10 day(s).
| Time | Temp. | Humidity | Pressure | Rain* | Wind** | Luminosity | Snow |
|---|---|---|---|---|---|---|---|
| 1777928040 | 16.11° C | 99% | 1016.7 hPa | 0.25 mm | - | - | - |
| 1777927740 | 16.11° C | 99% | 1016.3 hPa | 0.25 mm | - | - | - |
| 1777927440 | 16.11° C | 99% | 1016.4 hPa | 0.25 mm | - | - | - |
| 1777927140 | 16.11° C | 99% | 1016.1 hPa | 0.25 mm | - | - | - |
| 1777926840 | 16.11° C | 99% | 1016.1 hPa | 0.25 mm | - | - | - |
| 1777926540 | 16.11° C | 99% | 1016 hPa | 0.25 mm | - | - | - |
| 1777926242 | 16.11° C | 99% | 1016 hPa | 0.51 mm | - | - | - |
| 1777925940 | 16.67° C | 99% | 1015.9 hPa | 0.25 mm | - | - | - |
| 1777925640 | 16.67° C | 99% | 1016.2 hPa | 0.76 mm | - | - | - |
| 1777925340 | 16.67° C | 99% | 1016 hPa | 2.79 mm | - | - | - |
| 1777925040 | 16.67° C | 99% | 1016.1 hPa | 3.81 mm | - | - | - |
| 1777924740 | 16.67° C | 99% | 1016.1 hPa | 5.59 mm | - | - | - |
| 1777924442 | 16.67° C | 99% | 1016 hPa | 7.11 mm | - | - | - |
| 1777924142 | 16.67° C | 99% | 1015.9 hPa | 9.4 mm | - | - | - |
| 1777923841 | 16.67° C | 99% | 1016.2 hPa | 10.92 mm | - | - | - |
| 1777923541 | 16.11° C | 99% | 1016.1 hPa | 11.18 mm | - | - | - |
| 1777923241 | 16.11° C | 99% | 1016.2 hPa | 11.18 mm | - | - | - |
| 1777922942 | 16.11° C | 99% | 1016.1 hPa | 11.18 mm | - | - | - |
| 1777922641 | 16.11° C | 99% | 1015.9 hPa | 10.92 mm | - | - | - |
| 1777922341 | 16.11° C | 98% | 1016 hPa | 10.92 mm | - | - | - |
| 1777922040 | 16.11° C | 96% | 1016.1 hPa | 10.41 mm | - | - | - |
| 1777921740 | 16.67° C | 94% | 1016.4 hPa | 8.38 mm | - | - | - |
| 1777921440 | 16.67° C | 92% | 1016.2 hPa | 7.37 mm | - | - | - |
| 1777921142 | 16.67° C | 91% | 1016.2 hPa | 5.59 mm | - | - | - |
| 1777920842 | 17.22° C | 88% | 1016.6 hPa | 3.56 mm | - | - | - |
* Rain latest hour (hover to see other rain measurements)
** Current wind speed in m/s (hover to see current wind gust speed)